TimeEST,TemperatureF,Dew PointF,Humidity,Sea Level PressureIn,VisibilityMPH,Wind Direction,Wind SpeedMPH,Gust SpeedMPH,PrecipitationIn,Events,Conditions,WindDirDegrees,DateUTC
12:56 AM,37.9,30.0,73,30.06,10.0,SW,4.6,-,N/A,,Overcast,230,2012-11-26 05:56:00
1:56 AM,37.9,30.0,73,30.06,10.0,Calm,Calm,-,N/A,,Overcast,0,2012-11-26 06:56:00
2:56 AM,37.9,30.0,73,30.08,10.0,NNW,3.5,-,N/A,,Overcast,340,2012-11-26 07:56:00
3:56 AM,36.0,30.0,79,30.09,10.0,Calm,Calm,-,N/A,,Overcast,0,2012-11-26 08:56:00
4:56 AM,34.0,28.9,82,30.12,10.0,Calm,Calm,-,N/A,,Mostly Cloudy,0,2012-11-26 09:56:00
5:56 AM,32.0,26.1,79,30.14,10.0,Calm,Calm,-,N/A,,Partly Cloudy,0,2012-11-26 10:56:00
6:56 AM,30.0,26.1,85,30.16,9.0,Calm,Calm,-,N/A,,Clear,0,2012-11-26 11:56:00
7:56 AM,30.9,27.0,85,30.18,8.0,Calm,Calm,-,N/A,,Scattered Clouds,0,2012-11-26 12:56:00
8:56 AM,36.0,28.9,76,30.20,7.0,Calm,Calm,-,N/A,,Partly Cloudy,0,2012-11-26 13:56:00
9:56 AM,39.9,28.0,63,30.21,9.0,ESE,3.5,-,N/A,,Partly Cloudy,110,2012-11-26 14:56:00
10:56 AM,42.1,28.0,58,30.21,10.0,NE,3.5,-,N/A,,Partly Cloudy,50,2012-11-26 15:56:00
11:56 AM,43.0,28.0,56,30.20,10.0,Calm,Calm,-,N/A,,Partly Cloudy,0,2012-11-26 16:56:00
12:56 PM,46.9,26.1,44,30.18,10.0,Calm,Calm,-,N/A,,Partly Cloudy,0,2012-11-26 17:56:00
1:56 PM,48.0,26.1,42,30.18,10.0,Calm,Calm,-,N/A,,Scattered Clouds,0,2012-11-26 18:56:00
2:56 PM,48.9,26.1,41,30.16,10.0,Calm,Calm,-,N/A,,Scattered Clouds,0,2012-11-26 19:56:00
3:56 PM,46.0,26.1,46,30.17,10.0,NE,4.6,-,N/A,,Mostly Cloudy,40,2012-11-26 20:56:00
4:56 PM,45.0,28.0,52,30.18,10.0,NNE,3.5,-,N/A,,Mostly Cloudy,20,2012-11-26 21:56:00
5:56 PM,44.1,26.1,49,30.19,10.0,North,3.5,-,N/A,,Overcast,10,2012-11-26 22:56:00
6:56 PM,42.1,28.0,58,30.21,10.0,North,8.1,-,N/A,,Overcast,10,2012-11-26 23:56:00
7:56 PM,39.9,28.9,65,30.23,10.0,NNE,8.1,-,N/A,,Overcast,20,2012-11-27 00:56:00
8:56 PM,39.0,30.0,70,30.23,10.0,North,11.5,-,N/A,,Overcast,10,2012-11-27 01:56:00
9:56 PM,37.9,28.9,70,30.26,10.0,North,11.5,-,N/A,,Overcast,10,2012-11-27 02:56:00
10:56 PM,37.0,28.9,73,30.27,10.0,North,12.7,-,N/A,,Overcast,360,2012-11-27 03:56:00
11:56 PM,35.1,28.9,78,30.28,8.0,North,13.8,-,N/A,,Overcast,350,2012-11-27 04:56:00